Regional Weather Roundup
Issued by NWS

Home | Current Version | Previous Version | Graphics & Text | Print | Product List | Glossary On
Versions: 1 2 3 4 5 6 7 8 9 10 11 12 13 14 15 16 17 18 19 20 21 22 23 24 25 26 27 28 29 30 31 32 33 34 35 36 37 38 39 40 41 42 43 44 45 46 47 48 49 50
000
ASUS43 KFSD 302002
RWRSD

WEATHER ROUNDUP FOR SOUTH DAKOTA
NATIONAL WEATHER SERVICE SIOUX FALLS SD
300 PM CDT THU OCT 30 2014

NOTE: "FAIR" INDICATES FEW OR NO CLOUDS BELOW 12,000 FEET WITH NO
SIGNIFICANT WEATHER AND/OR OBSTRUCTIONS TO VISIBILITY.


SDZ001>005-009-010-012>017-302100-
NORTHWEST AND NORTH CENTRAL SOUTH DAKOTA

CITY           SKY/WX    TMP DP  RH WIND       PRES   REMARKS
BUFFALO          N/A     40  31  70 NE7       30.32R
FAITH            N/A     40  31  70 N14       30.37R
MOBRIDGE       CLOUDY    42  32  67 N16G23    30.35R
$$

SDZ012>016-024>037-041>051-057-063-072>074-302100-
SOUTHWEST AND SOUTH CENTRAL SOUTH DAKOTA

CITY           SKY/WX    TMP DP  RH WIND       PRES   REMARKS
RAPID CTY ARPT SUNNY     52  36  54 NE18      30.32S
PIERRE         MOSUNNY   44  32  62 N14       30.34R
CUSTER         CLOUDY    50  32  50 E9        30.31F
PHILIP         MOSUNNY   48  33  56 N10       30.35S
PINE RIDGE     SUNNY     58  33  39 N14       30.31F
SPEARFISH      FAIR      52  36  54 NE12      30.34S
WINNER         FAIR      52  32  46 N24       30.28S
$$

SDZ004>011-016>023-039-040-302100-
NORTHEAST SOUTH DAKOTA

CITY           SKY/WX    TMP DP  RH WIND       PRES   REMARKS
ABERDEEN       CLOUDY    41  32  70 N20G30    30.33R
WATERTOWN      CLOUDY    40  35  83 N20G28    30.23R
SISSETON         N/A     39  33  79 N21G26    30.28R
$$

SDZ017-020-022-023-036>040-048>070-302100-
SOUTHEAST SOUTH DAKOTA

CITY           SKY/WX    TMP DP  RH WIND       PRES   REMARKS
SIOUX FALLS    CLOUDY    50  42  74 N24G31    30.16R
HURON          CLOUDY    43  35  73 N22G28    30.28R
CHAMBERLAIN    PTSUNNY   45  34  65 N17G24    30.29S
MITCHELL       CLOUDY    44  38  79 N22G32    30.26R
YANKTON        MOSUNNY   50  37  62 NW24G33   30.20R
$$

ABBREVIATIONS USED IN REMARKS
   TC - TEMPERATURE IN CELSIUS
  WCI - WIND CHILL INDEX
   HX - HEAT INDEX
  VSB - VISIBILITY




USA.gov is the U.S. government's official web portal to all federal, state and local government web resources and services.